User: anonymous   Login
Location: Rometta
(44.2000°N, 10.0500°E)
Time: 17:42:58
(UTC+00:00)
Language:

YAOGAN 3 - Orbit

View from above orbital plane
View from above orbital plane
View from above satellite
View from above satellite

Ground track
Ground track

The orbit data is extracted from the following two-line orbital elements,

1 32289U 07055A   21105.23201711  .00000325  00000-0  48630-4 0  9992
2 32289  97.9770 124.8706 0001900  96.4695 263.6730 14.81081085725650
Epoch (UTC): 15 April 2021 05:34:06
Eccentricity: 0.0001900
inclination: 97.9770°
perigee height: 624 km
apogee height: 627 km
right ascension of ascending node: 124.8706°
argument of perigee: 96.4695°
revolutions per day: 14.81081085
mean anomaly at epoch: 263.6730°
orbit number at epoch: 72565

The dashed part of the orbit path shows where the satellite is in the earth's shadow,  

DLR